[[{"header":{"parameterUnit":"m.s-1","parameterCategory":1,"la1":30.2992,"la2":30.254,"lo1":-89.0895,"lo2":-89.0443,"dy":0.0025,"dx":0.0025,"nx":19,"ny":19,"refTime":"2026-03-20T21:00:00:Z","depth":0,"parameterNumber":2,"parameterNumberName":"U-component_of_WINDS"},"data":[0,0,0,-0.3281,-0.328,-0.3225,-0.3225,-0.3173,-0.3172,0,0,0,0,0,0,0,0,0,0,0,-0.3309,-0.3309,-0.3281,-0.328,-0.3226,-0.3225,-0.3173,-0.3172,0,0,0,0,0,0,0,0,0,0,0,-0.3309,-0.3309,-0.3309,-0.328,-0.3226,-0.3225,-0.3173,-0.3208,0,0,0,0,0,0,0,0,0,0,-0.3258,-0.3295,-0.3309,-0.3309,-0.328,-0.3226,-0.3225,-0.3209,-0.3205,-0.3205,0,-0.3209,0,-0.319,-0.317,-0.317,0,0,0,-0.3271,-0.3298,-0.3273,-0.3309,-0.3279,-0.3226,-0.3248,-0.3207,-0.3203,-0.3201,-0.3208,-0.3206,-0.3189,-0.317,-0.317,-0.3201,-0.3201,0,0,-0.3274,-0.3305,-0.3276,-0.3271,-0.3282,-0.3249,-0.3246,-0.3204,-0.3214,-0.3208,-0.3204,-0.3188,-0.317,-0.3169,-0.32,-0.3201,0,0,0,-0.3289,-0.3308,-0.3283,-0.3274,-0.3262,-0.3248,-0.3244,-0.3216,-0.3205,-0.3203,-0.3188,-0.3169,-0.3169,-0.3199,-0.32,-0.3257,0,0,0,-0.329,-0.3316,-0.3285,-0.3303,-0.3264,-0.3239,-0.3257,-0.3208,-0.3202,-0.3188,-0.3169,-0.3169,-0.3199,-0.32,-0.3254,-0.3278,0,0,0,-0.3308,-0.3318,-0.3314,-0.3305,-0.3283,-0.3238,-0.3225,-0.3206,-0.3193,-0.317,-0.3169,-0.3198,-0.32,-0.3252,-0.3274,-0.3295,0,0,0,-0.3336,-0.3366,-0.3316,-0.3342,-0.3283,-0.3275,-0.3225,-0.3217,-0.3204,-0.3169,-0.3199,-0.32,-0.3251,-0.3271,-0.3292,-0.3316,-0.333,0,0,-0.339,-0.3373,-0.3387,-0.334,-0.3349,-0.3281,-0.3297,-0.3256,-0.3225,-0.321,-0.3211,-0.3255,-0.3274,-0.3294,-0.3398,-0.3409,0,0,0,-0.3414,-0.3424,-0.3419,-0.3409,-0.3379,-0.3354,-0.3307,-0.3292,-0.3278,-0.3224,-0.3268,-0.3278,-0.3289,-0.3299,-0.3308,-0.3314,-0.3207,-0.3207,-0.3206,-0.3533,-0.3493,-0.3512,-0.3466,-0.3456,-0.3408,-0.3396,-0.3367,-0.3329,-0.334,-0.3334,-0.3403,-0.3416,-0.3422,-0.343,-0.3346,-0.3346,-0.3346,-0.3346,-0.3607,-0.3613,-0.3564,-0.3564,-0.3521,-0.3521,-0.3476,-0.3449,-0.3441,-0.3403,-0.3411,-0.3371,-0.3436,-0.344,-0.335,-0.3349,-0.3349,-0.3349,-0.3348,-0.3679,-0.3675,-0.3657,-0.3637,-0.3627,-0.3579,-0.3574,-0.3536,-0.35,-0.3507,-0.3496,-0.3495,-0.3488,-0.3505,-0.3505,-0.3506,-0.3506,-0.3506,-0.3506,-0.3759,-0.3737,-0.3738,-0.3709,-0.3697,-0.3677,-0.363,-0.3616,-0.3592,-0.3564,-0.3564,-0.3524,-0.3451,-0.3432,-0.3509,-0.3509,-0.3508,-0.3508,-0.3508,-0.3845,-0.382,-0.3822,-0.381,-0.3773,-0.3764,-0.3717,-0.3693,-0.3677,-0.3676,-0.3635,-0.3588,-0.3567,-0.3559,-0.3543,-0.3645,-0.3645,-0.3645,-0.3645,-0.3904,-0.3891,-0.3884,-0.3867,-0.3847,-0.3804,-0.3806,-0.377,-0.3728,-0.3715,-0.3696,-0.3672,-0.3666,-0.3648,-0.3639,-0.3623,-0.3743,-0.3743,-0.3743,-0.3954,-0.3937,-0.3946,-0.3906,-0.3875,-0.3848,-0.3848,-0.3831,-0.3778,-0.3746,-0.3704,-0.37,-0.3661,-0.3651,-0.3616,-0.3602,-0.3572,0,0]},{"header":{"parameterUnit":"m.s-1","parameterCategory":1,"la1":30.2992,"la2":30.254,"lo1":-89.0895,"lo2":-89.0443,"dy":0.0025,"dx":0.0025,"nx":19,"ny":19,"refTime":"2026-03-20T21:00:00:Z","depth":0,"parameterNumber":3,"parameterNumberName":"V-component_of_WINDS"},"data":[0,0,0,-0.0867,-0.0869,-0.0961,-0.0962,-0.1073,-0.1074,0,0,0,0,0,0,0,0,0,0,0,-0.0835,-0.0836,-0.0867,-0.0869,-0.0961,-0.0962,-0.1072,-0.1074,0,0,0,0,0,0,0,0,0,0,0,-0.0835,-0.0836,-0.0836,-0.087,-0.0961,-0.0962,-0.1072,-0.1005,0,0,0,0,0,0,0,0,0,0,-0.0917,-0.0883,-0.0835,-0.0836,-0.087,-0.0961,-0.0962,-0.1002,-0.101,-0.1028,0,-0.1042,0,-0.1059,-0.108,-0.1081,0,0,0,-0.0873,-0.0877,-0.0906,-0.0836,-0.0871,-0.0961,-0.0921,-0.1006,-0.1015,-0.1037,-0.1044,-0.1048,-0.1061,-0.1081,-0.1082,-0.1172,-0.1172,0,0,-0.0868,-0.0849,-0.09,-0.0911,-0.0895,-0.0918,-0.0924,-0.1011,-0.1018,-0.1044,-0.1051,-0.1063,-0.1082,-0.1083,-0.1172,-0.1172,0,0,0,-0.0851,-0.0846,-0.0873,-0.0906,-0.0923,-0.092,-0.0927,-0.1014,-0.1024,-0.1052,-0.1064,-0.1082,-0.1084,-0.1171,-0.1172,-0.1165,0,0,0,-0.0848,-0.0836,-0.087,-0.086,-0.0921,-0.0969,-0.0927,-0.1018,-0.1028,-0.1064,-0.1082,-0.1085,-0.1171,-0.1171,-0.1165,-0.1165,0,0,0,-0.0831,-0.0834,-0.0845,-0.0859,-0.0898,-0.0968,-0.0984,-0.1021,-0.1036,-0.1081,-0.1085,-0.1171,-0.1171,-0.1164,-0.1165,-0.1183,0,0,0,-0.0807,-0.0839,-0.0845,-0.0885,-0.0897,-0.0963,-0.0984,-0.1034,-0.1072,-0.1083,-0.1171,-0.1172,-0.1164,-0.1164,-0.1182,-0.1195,-0.1198,0,0,-0.0837,-0.0842,-0.0867,-0.0875,-0.0935,-0.0951,-0.1011,-0.1064,-0.1086,-0.1142,-0.1144,-0.1165,-0.1165,-0.1183,-0.1224,-0.1226,0,0,0,-0.087,-0.0887,-0.0907,-0.0942,-0.0982,-0.1017,-0.1063,-0.1082,-0.1131,-0.111,-0.1177,-0.1177,-0.1189,-0.1196,-0.1198,-0.1209,-0.1174,-0.1174,-0.1174,-0.0885,-0.091,-0.0953,-0.0989,-0.1022,-0.1068,-0.1098,-0.1132,-0.1149,-0.1164,-0.1181,-0.1202,-0.121,-0.1211,-0.1222,-0.1189,-0.1189,-0.1189,-0.1189,-0.093,-0.0958,-0.0979,-0.1027,-0.1054,-0.1095,-0.1141,-0.1151,-0.1194,-0.1192,-0.1203,-0.1199,-0.1213,-0.1224,-0.1189,-0.1189,-0.1189,-0.1189,-0.1189,-0.0942,-0.096,-0.0983,-0.1035,-0.1072,-0.1108,-0.1148,-0.1171,-0.1194,-0.1205,-0.1225,-0.1225,-0.1228,-0.1213,-0.1213,-0.1213,-0.1213,-0.1213,-0.1213,-0.0946,-0.0972,-0.1002,-0.1047,-0.1072,-0.1107,-0.1153,-0.1179,-0.1213,-0.1227,-0.1227,-0.1242,-0.121,-0.1201,-0.1214,-0.1214,-0.1214,-0.1214,-0.1214,-0.0982,-0.0977,-0.1024,-0.1049,-0.1103,-0.1138,-0.1167,-0.1217,-0.1241,-0.126,-0.1272,-0.1245,-0.1252,-0.1251,-0.1244,-0.1267,-0.1267,-0.1267,-0.1267,-0.0992,-0.0998,-0.105,-0.1088,-0.1128,-0.1159,-0.1211,-0.1247,-0.1284,-0.13,-0.13,-0.1293,-0.129,-0.1299,-0.1296,-0.129,-0.1325,-0.1325,-0.1325,-0.1016,-0.1026,-0.1065,-0.11,-0.1144,-0.1182,-0.1231,-0.1274,-0.1315,-0.1328,-0.1314,-0.1311,-0.13,-0.1295,-0.1307,-0.1302,-0.1292,0,0]}]]